Weather History for KIKV - January, 2014

Change the Weather History Date:

Friday, January 10, 2014

  Actual Average (KDSM) Record (KDSM)
Temperature  
Mean Temperature 28 °F 22 °F  
Max Temperature 33 °F 31 °F 65 °F (1928)
Min Temperature 23 °F 14 °F -22 °F (1982)
Degree Days  
Heating Degree Days 37 43  
Month to date heating degree days 423  
Since 1 July heating degree days 2890  
Cooling Degree Days 0 0  
Month to date cooling degree days 0  
Year to date cooling degree days 0  
Moisture  
Dew Point 30 °F    
Average Humidity 99    
Maximum Humidity 100    
Minimum Humidity 93    
Precipitation  
Precipitation 0.00 in 0.04 in 0.66 in (1975)
Month to date precipitation 0.33  
Year to date precipitation 0.33  
Snow  
Snow 0.00 in 0.20 in 5.60 in (2011)
Month to date snowfall 2.5  
Since 1 July snowfall 14.4  
Snow Depth -    
Sea Level Pressure  
Sea Level Pressure 29.71 in    
Wind  
Wind Speed 6 mph (SSE)    
Max Wind Speed 10 mph    
Max Gust Speed 18 mph    
Visibility 2 miles    
Events Fog , Rain    
T = Trace of Precipitation, MM = Missing Value Source: NWS Daily Summary

Daily Weather History Graph

Daily Weather History Graph

Search for Another Location

Airport or City:

Trip Planner

Search our weather history database for the weather conditions in past years. The results will help you decide how hot, cold, wet, or windy it might be!

Date:

Astronomy

Jan. 10, 2014 Rise Set
Actual Time 7:40 AM CST 5:03 PM CST
Civil Twilight 7:09 AM CST 5:34 PM CST
Nautical Twilight 6:35 AM CST 6:08 PM CST
Astronomical Twilight 6:01 AM CST 6:42 PM CST
Moon 1:08 PM CST (1/10) 2:47 AM CST (1/10)
Length of Visible Light 10h 24m
Length of Day
9h 22m
Waxing Gibbous, 75% of the Moon is Illuminated
Jan 10
Waxing Gibbous
Jan 15
Full
Jan 23
Last Quarter
Jan 30
New
Feb 6
First Quarter

Hourly Weather History & Observations

Time (CST) Temp. Windchill Dew Point Humidity Pressure Visibility Wind Dir Wind Speed Gust Speed Precip Events Conditions
12:15 AM 23.0 °F 12.4 °F 21.2 °F 93% 30.01 in 2.5 mi South 10.4 mph - N/A   Overcast
12:35 AM 23.0 °F 13.1 °F 21.2 °F 93% 30.00 in 2.5 mi South 9.2 mph - N/A   Overcast
12:55 AM 23.0 °F 13.9 °F 21.2 °F 93% 30.00 in 2.5 mi South 8.1 mph - N/A   Overcast
1:15 AM 23.0 °F 14.7 °F 23.0 °F 100% 29.99 in 2.0 mi South 6.9 mph - N/A   Overcast
1:35 AM 23.0 °F 14.7 °F 23.0 °F 100% 29.98 in 1.2 mi South 6.9 mph - N/A   Overcast
1:55 AM 23.0 °F 15.8 °F 23.0 °F 100% 29.98 in 1.0 mi South 5.8 mph - N/A   Overcast
2:15 AM 24.8 °F 17.9 °F 23.0 °F 93% 29.97 in 1.0 mi South 5.8 mph - N/A   Overcast
2:35 AM 24.8 °F 19.1 °F 23.0 °F 93% 29.97 in 1.0 mi SSE 4.6 mph - N/A   Overcast
2:55 AM 24.8 °F 19.1 °F 23.0 °F 93% 29.95 in 1.0 mi SE 4.6 mph - N/A   Overcast
3:15 AM 24.8 °F 19.1 °F 23.0 °F 93% 29.95 in 1.0 mi SSE 4.6 mph - N/A   Overcast
3:35 AM 24.8 °F 19.1 °F 24.8 °F 100% 29.93 in 1.0 mi SE 4.6 mph - N/A   Overcast
3:55 AM 24.8 °F 20.5 °F 24.8 °F 100% 29.92 in 1.0 mi ESE 3.5 mph - N/A   Overcast
4:15 AM 24.8 °F 19.1 °F 24.8 °F 100% 29.91 in 1.2 mi SE 4.6 mph - N/A   Overcast
4:35 AM 24.8 °F 20.5 °F 24.8 °F 100% 29.90 in 1.0 mi ESE 3.5 mph - N/A   Overcast
4:55 AM 26.6 °F 20.0 °F 24.8 °F 93% 29.88 in 0.8 mi SE 5.8 mph - N/A   Overcast
5:15 AM 26.6 °F 22.6 °F 26.6 °F 100% 29.86 in 0.8 mi East 3.5 mph - N/A   Overcast
5:35 AM 26.6 °F 21.2 °F 26.6 °F 100% 29.85 in 1.5 mi ESE 4.6 mph - N/A   Overcast
5:55 AM 26.6 °F 19.1 °F 26.6 °F 100% 29.84 in 1.2 mi SE 6.9 mph - N/A   Overcast
6:15 AM 28.4 °F 19.7 °F 28.4 °F 100% 29.83 in 1.0 mi SE 9.2 mph - N/A   Overcast
6:35 AM 28.4 °F 20.4 °F 28.4 °F 100% 29.83 in 1.0 mi SE 8.1 mph - N/A   Overcast
6:55 AM 28.4 °F 20.4 °F 28.4 °F 100% 29.82 in 1.0 mi SE 8.1 mph - N/A   Overcast
7:15 AM 28.4 °F 21.2 °F 28.4 °F 100% 29.83 in 1.0 mi SSE 6.9 mph 13.8 mph N/A   Overcast
7:35 AM 28.4 °F 20.4 °F 28.4 °F 100% 29.81 in 1.0 mi SE 8.1 mph - N/A   Overcast
7:55 AM 30.2 °F 22.6 °F 28.4 °F 93% 29.81 in 0.5 mi SE 8.1 mph - N/A   Overcast
8:15 AM 30.2 °F 22.6 °F 28.4 °F 93% 29.81 in 0.8 mi SE 8.1 mph - N/A   Overcast
8:35 AM 30.2 °F 21.3 °F 30.2 °F 100% 29.80 in 0.8 mi SE 10.4 mph - N/A   Overcast
8:55 AM 30.2 °F 21.3 °F 30.2 °F 100% 29.79 in 0.8 mi SE 10.4 mph - N/A   Overcast
9:15 AM 30.2 °F 21.9 °F 30.2 °F 100% 29.78 in 1.0 mi SE 9.2 mph - N/A   Overcast
9:35 AM 30.2 °F 21.9 °F 30.2 °F 100% 29.77 in 1.5 mi SE 9.2 mph - N/A   Overcast
9:55 AM 32.0 °F 24.8 °F 32.0 °F 100% 29.76 in 1.5 mi SE 8.1 mph - N/A   Overcast
10:15 AM 32.0 °F 25.6 °F 32.0 °F 100% 29.75 in 1.5 mi SE 6.9 mph - N/A   Overcast
10:35 AM 32.0 °F 25.6 °F 32.0 °F 100% 29.74 in 1.0 mi SE 6.9 mph - N/A   Overcast
10:55 AM 32.0 °F 24.8 °F 32.0 °F 100% 29.72 in 0.5 mi SE 8.1 mph - N/A Fog Fog
11:15 AM 32.0 °F - 32.0 °F 100% 29.70 in 0.2 mi North - - N/A Fog Fog
11:35 AM 32.0 °F - 32.0 °F 100% 29.67 in 0.2 mi North - - N/A   Overcast
11:55 AM 32.0 °F - 32.0 °F 100% 29.66 in 0.2 mi North - - N/A Fog Fog
12:15 PM 32.0 °F - 32.0 °F 100% 29.64 in 0.5 mi Calm Calm - N/A Fog Fog
12:35 PM 32.0 °F 27.5 °F 32.0 °F 100% 29.65 in 0.8 mi SE 4.6 mph - N/A   Overcast
12:55 PM 32.0 °F 24.8 °F 32.0 °F 100% 29.62 in 0.8 mi SE 8.1 mph 18.4 mph N/A Rain Light Rain
1:15 PM 32.0 °F 27.5 °F 32.0 °F 100% 29.59 in 1.0 mi East 4.6 mph - N/A Rain Light Rain
1:35 PM 32.0 °F - 32.0 °F 100% 29.57 in 1.0 mi North - - N/A   Overcast
1:55 PM 32.0 °F - 32.0 °F 100% 29.57 in 1.0 mi Calm Calm - N/A Rain Light Rain
2:15 PM 33.8 °F - 33.8 °F 100% 29.57 in 1.0 mi Calm Calm - N/A   Overcast
2:35 PM 33.8 °F - 33.8 °F 100% 29.56 in 0.8 mi Calm Calm - N/A   Light Drizzle
2:55 PM 33.8 °F 30.8 °F 33.8 °F 100% 29.55 in 1.0 mi NNE 3.5 mph - N/A   Light Drizzle
3:15 PM 33.8 °F - 33.8 °F 100% 29.54 in 1.8 mi Calm Calm - N/A   Light Drizzle
3:35 PM 33.8 °F - 33.8 °F 100% 29.55 in 2.5 mi Calm Calm - N/A   Overcast
3:55 PM 33.8 °F - 33.8 °F 100% 29.55 in 2.0 mi Calm Calm - N/A   Overcast
4:15 PM 33.8 °F - 33.8 °F 100% 29.55 in 2.0 mi Calm Calm - N/A   Overcast
4:35 PM 32.0 °F - 32.0 °F 100% 29.55 in 2.0 mi Calm Calm - N/A   Overcast
4:55 PM 32.0 °F 26.4 °F 32.0 °F 100% 29.55 in 2.0 mi North 5.8 mph - N/A   Overcast
5:15 PM 32.0 °F 27.5 °F 32.0 °F 100% 29.54 in 1.5 mi North 4.6 mph - N/A   Light Drizzle
5:35 PM 32.0 °F - 32.0 °F 100% 29.54 in 1.5 mi Calm Calm - N/A   Overcast
5:55 PM 32.0 °F - 32.0 °F 100% 29.54 in 1.0 mi Calm Calm - N/A   Overcast
6:15 PM 32.0 °F - 32.0 °F 100% 29.54 in 1.0 mi Calm Calm - N/A   Light Drizzle
6:35 PM 32.0 °F - 32.0 °F 100% 29.54 in 3.0 mi Calm Calm - N/A   Overcast
6:55 PM 32.0 °F 27.5 °F 32.0 °F 100% 29.54 in 3.0 mi WNW 4.6 mph - N/A   Overcast
7:15 PM 32.0 °F 26.4 °F 32.0 °F 100% 29.55 in 3.0 mi WNW 5.8 mph - N/A   Overcast
7:35 PM 32.0 °F 25.6 °F 32.0 °F 100% 29.55 in 4.0 mi WNW 6.9 mph - N/A   Overcast
7:55 PM 32.0 °F 25.6 °F 32.0 °F 100% 29.55 in 2.5 mi WNW 6.9 mph - N/A   Overcast
8:15 PM 32.0 °F 25.6 °F 32.0 °F 100% 29.55 in 3.0 mi WNW 6.9 mph - N/A   Overcast
8:35 PM 32.0 °F 25.6 °F 32.0 °F 100% 29.54 in 4.0 mi WNW 6.9 mph - N/A   Overcast
8:55 PM 32.0 °F 25.6 °F 32.0 °F 100% 29.55 in 4.0 mi West 6.9 mph - N/A   Overcast
9:15 PM 32.0 °F 24.8 °F 32.0 °F 100% 29.55 in 4.0 mi West 8.1 mph - N/A   Overcast
9:35 PM 32.0 °F 23.6 °F 32.0 °F 100% 29.55 in 5.0 mi WNW 10.4 mph - N/A   Overcast
9:55 PM 32.0 °F 24.2 °F 32.0 °F 100% 29.55 in 5.0 mi WNW 9.2 mph - N/A   Overcast
10:15 PM 32.0 °F 24.8 °F 32.0 °F 100% 29.55 in 6.0 mi WNW 8.1 mph - N/A   Overcast
10:35 PM 32.0 °F 25.6 °F 32.0 °F 100% 29.56 in 6.0 mi West 6.9 mph - N/A   Overcast
10:55 PM 32.0 °F 24.2 °F 32.0 °F 100% 29.56 in 6.0 mi West 9.2 mph - N/A   Overcast
11:15 PM 32.0 °F 26.4 °F 32.0 °F 100% 29.56 in 5.0 mi West 5.8 mph - N/A   Overcast
11:35 PM 32.0 °F 25.6 °F 32.0 °F 100% 29.56 in 5.0 mi West 6.9 mph - N/A   Overcast
11:55 PM 32.0 °F 25.6 °F 32.0 °F 100% 29.55 in 5.0 mi West 6.9 mph - N/A   Overcast